Flag for U.S.A. Weather past 2 weeks in Lansing, Michigan, U.S.A.

Now
66 °F

Passing clouds.


Feels Like: 66 °F
Forecast: 65 / 82 °F
Wind: No wind

Location: Capital City Airport

Current Time: Sep 5, 2015 at 2:45:22 AM

Latest Report: Sep 5, 2015 at 2:00 AM


Visibility: 10 mi

Pressure: 30.08 "Hg

Humidity: 96%

Dew point: 65 °F

Location of LansingLocation

Historic Weather in Lansing — Graph

°F

Lansing temperature yesterday

Maximum temperature yesterday: 78 °F (at 3:53 PM)
Minimum temperature yesterday: 68 °F (at 6:53 AM)
Average temperature yesterday: 72 °F

Past Weeks' High & Low Weather Summary

 TemperatureHumidityPressure
High89 °F (Sep 2, 3:53 PM)97% (Aug 30, 4:53 AM)30.24 "Hg (Aug 30, 4:53 AM)
Low49 °F (Aug 28, 6:53 AM)41% (Aug 21, 1:53 PM)29.80 "Hg (Aug 23, 5:53 PM)
Average67 °F78%30.04 "Hg
* Reported Aug 21 2:53 AM — Sep 5 2:00 AM, Lansing, Weather by CustomWeather, © 2015

Note: Actual official high and low records may vary slightly from our data, if they occured in-between our weather recording intervals... More about our weather records

Advertising

Lansing weather history for previous 24 hours

 ConditionsComfort  
Time TempWeatherWind HumidityBarometerVisibility
2:00 AM
Sat, Sep 5
66 °FPassing clouds.No wind96%30.08 "Hg10 mi
12:53 AM67 °FFog.No wind93%30.06 "Hg3 mi
11:53 PM
Fri, Sep 4
68 °FPassing clouds.No wind93%30.06 "Hg7 mi
10:53 PM68 °FFog.No wind93%30.06 "Hg6 mi
9:53 PM69 °FClear.No wind93%30.06 "Hg9 mi
8:53 PM71 °FSunny.3 mph90%30.04 "Hg10 mi
7:53 PM74 °FPassing clouds.No wind82%30.03 "Hg10 mi
6:53 PM76 °FOvercast.No wind74%30.03 "Hg10 mi
5:53 PM77 °FOvercast.No wind71%30.03 "Hg10 mi
4:53 PM78 °FOvercast.6 mph66%30.00 "Hg10 mi
3:53 PM78 °FBroken clouds.6 mph66%30.00 "Hg10 mi
2:53 PM76 °FMore clouds than sun.6 mph74%30.02 "Hg10 mi
1:53 PM75 °FMostly cloudy.5 mph74%30.02 "Hg10 mi
1:03 PM74 °FOvercast.3 mph76%30.03 "Hg10 mi
12:53 PM73 °FMostly cloudy.6 mph79%30.02 "Hg10 mi
11:53 AM73 °FOvercast.7 mph81%30.02 "Hg10 mi
11:04 AM72 °FMostly cloudy.No wind81%30.03 "Hg10 mi
10:53 AM72 °FMostly cloudy.5 mph81%30.01 "Hg10 mi
9:53 AM69 °FFog.6 mph93%30.00 "Hg5 mi
8:53 AM68 °FFog.5 mph96%30.00 "Hg3 mi
7:53 AM68 °FFog.6 mph93%29.98 "Hg3 mi
6:53 AM68 °FFog.No wind96%29.96 "Hg5 mi
5:53 AM69 °FFog.6 mph93%29.94 "Hg5 mi
4:53 AM69 °FFog.6 mph96%29.94 "Hg3 mi
3:53 AM69 °FFog.7 mph93%29.93 "Hg5 mi
2:53 AM69 °FFog.5 mph93%29.93 "Hg5 mi
Weather by CustomWeather, © 2015

See weather overviewHow to use our weather pages